Location: Banff
(51.1667°N, 115.5667°W)
Time: 15:09:14
(UTC+00:00)

Explorer 7 - Visible Passes

Search period start: 26 November 2020 00:00
Search period end: 06 December 2020 00:00
Orbit: 484 x 678 km, 50.3° (Epoch: 25 November)

Date Brightness Start Highest point End Pass type
(mag) Time Alt. Az. Time Alt. Az. Time Alt. Az.
26 Nov 7.3 12:29:55 59° ESE 12:29:55 59° ESE 12:33:20 10° E visible
26 Nov 6.9 14:06:13 14° W 14:09:43 74° S 14:13:39 10° ESE visible
27 Nov 7.1 12:34:27 65° ESE 12:34:27 65° ESE 12:37:59 10° E visible
27 Nov 7.0 14:10:45 13° W 14:14:20 64° SSW 14:18:14 10° ESE visible
28 Nov 7.0 12:38:58 70° ESE 12:38:58 70° ESE 12:42:37 10° E visible
28 Nov 7.2 14:15:16 12° W 14:18:55 52° SSW 14:22:45 10° SE visible
29 Nov 6.9 12:43:28 73° SE 12:43:28 73° SE 12:47:15 10° E visible
29 Nov 7.6 14:19:46 11° W 14:23:27 40° SSW 14:27:09 10° SE visible
30 Nov 6.9 12:47:59 71° SSE 12:47:59 71° SSE 12:51:51 10° ESE visible
30 Nov 8.0 14:24:16 10° W 14:27:56 30° SSW 14:31:26 10° SSE visible
01 Dec 7.0 12:52:30 61° S 12:52:30 61° S 12:56:24 10° ESE visible
01 Dec 8.4 14:29:07 10° W 14:32:22 22° SW 14:35:28 10° SSE visible
02 Dec 10.1 11:20:45 10° E 11:20:45 10° E 11:20:47 10° E visible
02 Dec 7.2 12:57:03 50° SSW 12:57:03 50° SSW 13:00:53 10° SE visible
02 Dec 8.8 14:34:13 10° W 14:36:44 16° SW 14:39:10 10° S visible
03 Dec 10.1 11:25:20 10° ESE 11:25:20 10° ESE 11:25:24 10° ESE visible
03 Dec 7.6 13:01:38 38° SSW 13:01:38 38° SSW 13:05:15 10° SE visible
03 Dec 9.1 14:40:14 10° WSW 14:41:02 10° SW 14:41:50 10° SW visible
04 Dec 10.1 11:29:57 10° ESE 11:29:57 10° ESE 11:29:59 10° ESE visible
04 Dec 8.0 13:06:16 29° SSW 13:06:16 29° SSW 13:09:28 10° SSE visible
05 Dec 8.5 13:10:57 20° SSW 13:10:57 20° SSW 13:13:26 10° SSE visible
